TimeEET,TemperatureF,Dew PointF,Humidity,Sea Level PressureIn,VisibilityMPH,Wind Direction,Wind SpeedMPH,Gust SpeedMPH,PrecipitationIn,Events,Conditions,WindDirDegrees,DateUTC
12:20 AM,57.2,55.4,94,30.06,6.2,Calm,Calm,-,N/A,,Partly Cloudy,0,2012-11-03 22:20:00
12:50 AM,57.2,55.4,94,30.06,6.2,Calm,Calm,-,N/A,,Partly Cloudy,0,2012-11-03 22:50:00
1:20 AM,57.2,55.4,94,30.06,6.2,Calm,Calm,-,N/A,,Partly Cloudy,0,2012-11-03 23:20:00
1:50 AM,57.2,55.4,94,30.09,6.2,Calm,Calm,-,N/A,,Partly Cloudy,0,2012-11-03 23:50:00
2:00 AM,57,55,92,30.09,6,Calm,Calm,,,,Scattered Clouds,,2012-11-04 00:00:00
2:20 AM,57.2,55.4,94,30.09,6.2,Calm,Calm,-,N/A,,Partly Cloudy,0,2012-11-04 00:20:00
2:50 AM,57.2,55.4,94,30.09,6.2,Calm,Calm,-,N/A,,Partly Cloudy,0,2012-11-04 00:50:00
3:20 AM,57.2,55.4,94,30.09,6.2,Calm,Calm,-,N/A,,Partly Cloudy,0,2012-11-04 01:20:00
3:50 AM,57.2,55.4,94,30.06,6.2,Calm,Calm,-,N/A,,Partly Cloudy,0,2012-11-04 01:50:00
4:20 AM,57.2,55.4,94,30.06,6.2,Calm,Calm,-,N/A,,Partly Cloudy,0,2012-11-04 02:20:00
4:50 AM,55.4,53.6,94,30.06,6.2,Calm,Calm,-,N/A,,Partly Cloudy,0,2012-11-04 02:50:00
5:20 AM,55.4,53.6,94,30.06,6.2,Calm,Calm,-,N/A,,Partly Cloudy,0,2012-11-04 03:20:00
5:50 AM,55.4,55.4,100,30.06,6.2,Calm,Calm,-,N/A,,Partly Cloudy,0,2012-11-04 03:50:00
6:20 AM,55.4,55.4,100,30.06,6.2,Calm,Calm,-,N/A,,Partly Cloudy,0,2012-11-04 04:20:00
6:50 AM,55.4,53.6,94,30.06,6.2,Calm,Calm,-,N/A,,Partly Cloudy,0,2012-11-04 04:50:00
7:20 AM,53.6,51.8,94,30.06,6.2,Calm,Calm,-,N/A,,Partly Cloudy,0,2012-11-04 05:20:00
7:50 AM,51.8,50.0,94,30.06,5.0,Calm,Calm,-,N/A,,Scattered Clouds,0,2012-11-04 05:50:00
8:00 AM,52,50,92,30.09,5,Calm,Calm,,,,Mist,,2012-11-04 06:00:00
8:20 AM,51.8,50.0,94,30.06,1.9,Calm,Calm,-,N/A,,Mostly Cloudy,0,2012-11-04 06:20:00
8:50 AM,57.2,55.4,94,30.09,0.9,Variable,3.5,-,N/A,,Scattered Clouds,0,2012-11-04 06:50:00
9:20 AM,57.2,55.4,94,30.09,1.2,East,5.8,-,N/A,,Scattered Clouds,90,2012-11-04 07:20:00
9:50 AM,60.8,57.2,88,30.09,4.3,NNE,4.6,-,N/A,,Mostly Cloudy,20,2012-11-04 07:50:00
10:20 AM,60.8,57.2,88,30.09,4.3,NNE,4.6,-,N/A,,Mostly Cloudy,30,2012-11-04 08:20:00
10:50 AM,62.6,59.0,88,30.09,5.0,East,4.6,-,N/A,,Mostly Cloudy,80,2012-11-04 08:50:00
11:20 AM,62.6,59.0,88,30.09,5.0,East,4.6,-,N/A,,Mostly Cloudy,90,2012-11-04 09:20:00
11:50 AM,64.4,60.8,88,30.09,5.0,SE,4.6,-,N/A,,Mostly Cloudy,130,2012-11-04 09:50:00
12:20 PM,64.4,60.8,88,30.09,5.0,South,5.8,-,N/A,,Mostly Cloudy,180,2012-11-04 10:20:00
12:50 PM,66.2,57.2,73,30.06,5.6,South,5.8,-,N/A,,Mostly Cloudy,180,2012-11-04 10:50:00
1:20 PM,66.2,57.2,73,30.06,5.6,South,5.8,-,N/A,,Mostly Cloudy,180,2012-11-04 11:20:00
1:50 PM,66.2,59.0,78,30.04,5.6,South,6.9,-,N/A,,Overcast,190,2012-11-04 11:50:00
2:00 PM,66,59,72,30.06,6,South,6.9,,,,Mist,190,2012-11-04 12:00:00
2:20 PM,66.2,59.0,78,30.04,5.6,South,6.9,-,N/A,,Overcast,190,2012-11-04 12:20:00
2:50 PM,66.2,59.0,78,30.04,5.6,SSW,4.6,-,N/A,,Overcast,210,2012-11-04 12:50:00
3:20 PM,66.2,59.0,78,30.04,5.6,SSW,4.6,-,N/A,,Overcast,200,2012-11-04 13:20:00
3:50 PM,66.2,59.0,78,30.04,4.3,SSW,4.6,-,N/A,,Overcast,210,2012-11-04 13:50:00
4:20 PM,66.2,59.0,78,30.04,4.3,WSW,5.8,-,N/A,,Mostly Cloudy,240,2012-11-04 14:20:00
4:50 PM,64.4,59.0,83,30.04,5.0,Variable,3.5,-,N/A,,Mostly Cloudy,0,2012-11-04 14:50:00
5:20 PM,64.4,59.0,83,30.04,-9999.0,North,-9999.0,-,N/A,,Mostly Cloudy,0,2012-11-04 15:20:00
5:50 PM,64.4,60.8,88,30.04,-9999.0,North,-9999.0,-,N/A,,Mostly Cloudy,0,2012-11-04 15:50:00
6:20 PM,64.4,60.8,88,30.04,-9999.0,North,-9999.0,-,N/A,,Mostly Cloudy,0,2012-11-04 16:20:00
6:50 PM,62.6,59.0,88,30.04,5.6,Variable,3.5,-,N/A,,Mostly Cloudy,0,2012-11-04 16:50:00
7:20 PM,62.6,59.0,88,30.04,5.6,Variable,3.5,-,N/A,,Scattered Clouds,0,2012-11-04 17:20:00
7:50 PM,60.8,57.2,88,30.04,5.6,NNE,5.8,-,N/A,,Scattered Clouds,20,2012-11-04 17:50:00
8:00 PM,60,58,90,30.06,6,NNE,5.8,,,,Mist,20,2012-11-04 18:00:00
8:20 PM,59.0,57.2,94,30.04,5.6,North,4.6,-,N/A,,Scattered Clouds,360,2012-11-04 18:20:00
8:50 PM,59.0,57.2,94,30.04,5.6,Calm,Calm,-,N/A,,Scattered Clouds,0,2012-11-04 18:50:00
9:20 PM,59.0,57.2,94,30.04,5.6,Calm,Calm,-,N/A,,Scattered Clouds,0,2012-11-04 19:20:00
9:50 PM,57.2,55.4,94,30.04,4.3,Calm,Calm,-,N/A,,Partly Cloudy,0,2012-11-04 19:50:00
10:20 PM,57.2,55.4,94,30.04,4.3,Calm,Calm,-,N/A,,Partly Cloudy,0,2012-11-04 20:20:00
10:50 PM,57.2,53.6,88,30.04,5.0,Calm,Calm,-,N/A,,Partly Cloudy,0,2012-11-04 20:50:00
11:20 PM,57.2,53.6,88,30.04,5.0,Calm,Calm,-,N/A,,Partly Cloudy,0,2012-11-04 21:20:00
11:50 PM,57.2,53.6,88,30.04,5.0,Calm,Calm,-,N/A,,Partly Cloudy,0,2012-11-04 21:50:00